sat.trackr.live / text

‹ back to catalog

STARLINK-4528

NORAD 53399 · 2022-097M

PAYLOAD ACTIVE UNKNOWN

§ Identity

Operator
Country
US
Launch date
2022-08-10
Launch site
AFETR
Launch vehicle
Mass (kg)
RCS (m²)

Purposes: comms

External: N2YO · Heavens-Above · Gunter

§ Orbital elements

Epoch: 2026-09-19T20:49:20.487072Z

Period
93.85 min
Inclination
53.1599°
Eccentricity
0.0001108
Mean motion
15.34389076 rev/d
Perigee alt
462.0 km
Apogee alt
463.5 km
Semi-major
6,840.9 km
B*
1.8137e-4
RAAN
324.3519°
Arg perigee
70.7348°
Mean anomaly
289.3774°
Rev number
22,793

§ Raw data

STARLINK-45281 53399U 22097M   26262.86759823  .00005754  00000+0  18137-3 0  99982 53399  53.1599 324.3519 0001108  70.7348 289.3774 15.34389076227938

JSON: /api/v1/satellites/53399 · /tle

For live sub-satellite position, see the globe view (requires WebGL).

§ Visibility from observer

Set your observer location to see the next 7 days of passes ≥ 10°. The values pass through the URL so the page stays shareable.

No JS? Fill the form by hand. The geolocation button needs JavaScript.